TimeMST,TemperatureF,Dew PointF,Humidity,Sea Level PressureIn,VisibilityMPH,Wind Direction,Wind SpeedMPH,Gust SpeedMPH,PrecipitationIn,Events,Conditions,WindDirDegrees,DateUTC
12:13 AM,23.0,19.4,86,30.00,2.0,NNE,10.4,-,0.00,Snow,Light Snow,30,2013-02-11 07:13:00
12:31 AM,23.0,19.4,86,30.01,1.2,NE,9.2,-,0.00,Snow,Light Snow,40,2013-02-11 07:31:00
12:54 AM,23.0,19.9,88,30.05,2.0,NE,12.7,-,0.00,Snow,Light Snow,50,2013-02-11 07:54:00
1:05 AM,21.2,19.4,93,30.01,1.5,NE,10.4,-,0.00,Snow,Light Snow,50,2013-02-11 08:05:00
1:25 AM,21.2,19.4,93,30.01,3.0,ENE,10.4,-,0.00,Snow,Light Snow,60,2013-02-11 08:25:00
1:35 AM,21.2,19.4,93,30.01,8.0,ENE,10.4,-,0.00,Snow,Light Snow,60,2013-02-11 08:35:00
1:54 AM,21.0,18.0,88,30.06,10.0,NE,9.2,-,0.00,,Overcast,50,2013-02-11 08:54:00
2:54 AM,19.9,16.0,85,30.05,10.0,ENE,8.1,-,0.00,,Overcast,70,2013-02-11 09:54:00
3:26 AM,21.2,15.8,80,30.00,3.0,East,10.4,-,0.00,Snow,Light Snow,80,2013-02-11 10:26:00
4:54 AM,19.9,16.0,85,30.08,7.0,Calm,Calm,-,0.00,,Overcast,0,2013-02-11 11:54:00
5:54 AM,19.9,15.1,81,30.09,10.0,East,8.1,-,0.00,,Overcast,100,2013-02-11 12:54:00
6:54 AM,19.0,12.9,77,30.10,10.0,East,8.1,-,N/A,,Overcast,100,2013-02-11 13:54:00
7:54 AM,21.0,14.0,74,30.10,10.0,Calm,Calm,-,N/A,,Overcast,0,2013-02-11 14:54:00
8:54 AM,23.0,16.0,74,30.10,10.0,NW,5.8,-,N/A,,Overcast,310,2013-02-11 15:54:00
9:54 AM,28.0,17.1,63,30.06,10.0,NNE,4.6,-,0.03,,Clear,20,2013-02-11 16:54:00
10:54 AM,30.0,19.0,64,30.06,10.0,WNW,6.9,-,N/A,,Clear,300,2013-02-11 17:54:00
11:54 AM,32.0,19.9,61,30.02,10.0,WSW,6.9,23.0,N/A,,Clear,240,2013-02-11 18:54:00
12:54 PM,36.0,17.1,46,29.96,10.0,WSW,23.0,27.6,N/A,,Clear,240,2013-02-11 19:54:00
1:54 PM,37.9,16.0,41,29.92,10.0,SW,18.4,-,N/A,,Clear,230,2013-02-11 20:54:00
2:54 PM,37.9,15.1,39,29.92,10.0,SSW,17.3,26.5,N/A,,Clear,200,2013-02-11 21:54:00
3:54 PM,37.0,15.1,41,29.93,10.0,South,15.0,20.7,N/A,,Clear,190,2013-02-11 22:54:00
4:54 PM,35.1,16.0,46,29.96,10.0,WSW,6.9,-,N/A,,Scattered Clouds,250,2013-02-11 23:54:00
5:54 PM,33.1,18.0,54,29.98,10.0,NNE,4.6,-,N/A,,Scattered Clouds,20,2013-02-12 00:54:00
6:54 PM,30.9,19.0,61,30.03,10.0,WNW,6.9,-,N/A,,Clear,290,2013-02-12 01:54:00
7:54 PM,30.0,19.9,66,30.02,10.0,West,6.9,-,N/A,,Partly Cloudy,280,2013-02-12 02:54:00
9:54 PM,24.1,17.1,75,30.04,10.0,NNE,3.5,-,N/A,,Overcast,20,2013-02-12 04:54:00
10:54 PM,24.1,18.0,77,30.03,10.0,South,4.6,-,N/A,,Overcast,170,2013-02-12 05:54:00
11:54 PM,24.1,18.0,77,30.03,10.0,WSW,3.5,-,N/A,,Overcast,250,2013-02-12 06:54:00